Terug naar catalogus

COSMOS 1191 DEB

LostHEO
NORAD 26977·DEBRIS·🇷🇺 Russia

Gelanceerd Jul 2, 1980 vanaf Plesetsk Cosmodrome

Loading…

Volgende Passages (komende 24 uur)

TLE

VerouderdSource: Space-Track

Epoch: Nov 11, 2021, 05:28 UTC

1 26977U 80057H   21315.22783569  .00000407  00000-0  00000-0 0  9996
2 26977  64.5590 205.6654 6486758  42.9603 352.5581  1.99693401146628

Volg COSMOS 1191 DEB in realtime met AllMySat

Download on the App Store